Simultaneous Nadir Overpasses (SNOs) Predictions

Prediction of SNOs between NPP and TERRA Satellite Orbit:

Table of predicted SNOs for the next 14.0 days since TLE Epoch: 3/16/2024
Index Date (NPP) Time (NPP) Lat,Lon (NPP) SZA (NPP ) Date (TERRA) Time (TERRA) Lat,Lon (TERRA) SZA (TERRA ) Distance(km) Time Diff (sec)
1 03/18/2024 04:01:22 -72.18, -67.33 106.92 03/18/2024 04:02:33 -72.11, -66.69 107.04 23.32 71
2 03/18/2024 04:52:01 71.86, 100.60 72.72 03/18/2024 04:51:57 71.85, 100.54 72.71 2.28 4
3 03/18/2024 05:42:37 -71.46, -91.37 107.72 03/18/2024 05:41:26 -71.51, -92.37 107.61 35.51 71
4 03/20/2024 16:04:31 71.96, -67.71 71.85 03/20/2024 16:05:41 71.95, -67.76 71.83 1.90 70
5 03/20/2024 16:55:13 -71.87, 99.77 108.26 03/20/2024 16:55:05 -71.88, 99.77 108.26 1.18 8
6 03/20/2024 17:45:46 71.18, -91.69 70.99 03/20/2024 17:44:38 71.19, -93.69 71.10 71.57 68
7 03/23/2024 04:07:43 -71.98, -68.55 109.13 03/23/2024 04:08:49 -71.96, -68.57 109.17 2.39 66
8 03/23/2024 04:58:27 71.86, 98.97 70.74 03/23/2024 04:58:11 71.87, 98.94 70.74 1.19 16
9 03/23/2024 05:48:55 -71.05, -92.27 110.15 03/23/2024 05:47:48 -71.09, -94.66 109.99 86.49 67
10 03/25/2024 16:10:57 71.98, -69.37 69.89 03/25/2024 16:11:54 71.97, -69.36 69.86 1.20 57
11 03/25/2024 17:01:39 -71.89, 98.12 110.23 03/25/2024 17:01:18 -71.90, 98.17 110.23 2.04 21
12 03/28/2024 04:14:08 -71.96, -70.13 111.13 03/28/2024 04:15:01 -71.98, -70.16 111.12 2.02 53
13 03/28/2024 05:04:53 71.90, 97.28 68.80 03/28/2024 05:04:23 71.89, 97.35 68.79 2.98 30



Historial Predications of SNOs between NPP and TERRA
